AEZ2115 LIRF-LICB

Flight info

Callsign AEZ2115
Flight time 1h 42m
Altitude 35000
Route RIFFI DCT BEROL DCT ROSAS DCT LIBRO
Aircraft B738/M-SDE2E3FGHIRWXY/LB1

Departure

Time 2026-05-09 10:30
Airport Rome–Fiumicino Leonardo da Vinci International Airport (LIRF)

Arrival

Time 2026-05-09 12:13
Airport Comiso Airport (LICB)
Time Latitude Longitude Altitude Speed Heading
2026-05-09 10:03 41.80050 12.26412 16 ft 0 kts 69°
2026-05-09 10:15 41.80050 12.26411 16 ft 0 kts 69°
2026-05-09 10:21 41.80050 12.26412 16 ft 0 kts 69°
2026-05-09 10:21 41.80047 12.26399 16 ft 2 kts 74°
2026-05-09 10:21 41.80043 12.26380 16 ft 2 kts 72°
2026-05-09 10:21 41.80038 12.26361 16 ft 2 kts 72°
2026-05-09 10:22 41.80034 12.26344 16 ft 0 kts 72°
2026-05-09 10:22 41.80032 12.26337 16 ft 0 kts 36°
2026-05-09 10:22 41.80027 12.26335 16 ft 0 kts 345°
2026-05-09 10:22 41.80022 12.26338 16 ft 1 kts 339°
2026-05-09 10:23 41.80020 12.26339 16 ft 0 kts 340°
2026-05-09 10:25 41.80040 12.26329 16 ft 9 kts 340°
2026-05-09 10:25 41.80100 12.26303 16 ft 7 kts 329°
2026-05-09 10:26 41.80138 12.26216 16 ft 18 kts 294°
2026-05-09 10:26 41.80205 12.26046 16 ft 14 kts 336°
2026-05-09 10:26 41.80295 12.26081 16 ft 16 kts 26°
2026-05-09 10:26 41.80426 12.26163 16 ft 21 kts 19°
2026-05-09 10:27 41.80539 12.26283 16 ft 21 kts 67°
2026-05-09 10:27 41.80594 12.26479 15 ft 24 kts 69°
2026-05-09 10:27 41.80657 12.26712 15 ft 25 kts 69°
2026-05-09 10:27 41.80717 12.26924 14 ft 22 kts 69°
2026-05-09 10:28 41.80799 12.27034 14 ft 16 kts 352°
2026-05-09 10:28 41.80865 12.27011 14 ft 0 kts 339°
2026-05-09 10:29 41.80867 12.27010 14 ft 2 kts 339°
2026-05-09 10:29 41.80933 12.26977 14 ft 12 kts 331°
2026-05-09 10:29 41.80945 12.26886 14 ft 9 kts 249°
2026-05-09 10:29 41.80944 12.26880 14 ft 0 kts 249°
2026-05-09 10:30 41.80873 12.26625 15 ft 72 kts 250°
2026-05-09 10:30 41.80598 12.25629 18 ft 152 kts 250°
2026-05-09 10:30 41.80182 12.24165 504 ft 179 kts 249°
2026-05-09 10:30 41.79698 12.22608 1404 ft 186 kts 244°
2026-05-09 10:31 41.79108 12.21225 2419 ft 173 kts 232°
2026-05-09 10:31 41.78086 12.20195 2822 ft 193 kts 202°
2026-05-09 10:31 41.76928 12.19248 3409 ft 209 kts 225°
2026-05-09 10:31 41.76027 12.17636 4069 ft 222 kts 229°
2026-05-09 10:32 41.74803 12.16433 4838 ft 226 kts 195°
2026-05-09 10:32 41.73218 12.16344 5494 ft 237 kts 169°
2026-05-09 10:32 41.71562 12.16761 6106 ft 252 kts 170°
2026-05-09 10:32 41.69791 12.17054 6758 ft 266 kts 175°
2026-05-09 10:33 41.67884 12.17185 7400 ft 280 kts 178°
2026-05-09 10:33 41.65914 12.17256 8205 ft 287 kts 179°
2026-05-09 10:33 41.63920 12.17324 9073 ft 291 kts 179°
2026-05-09 10:33 41.61889 12.17406 9926 ft 296 kts 179°
2026-05-09 10:34 41.59816 12.17499 10675 ft 304 kts 179°
2026-05-09 10:34 41.55401 12.18259 11732 ft 340 kts 160°
2026-05-09 10:34 41.53337 12.19856 12258 ft 357 kts 145°
2026-05-09 10:35 41.51334 12.21973 12715 ft 374 kts 141°
2026-05-09 10:35 41.49313 12.24275 13191 ft 391 kts 140°
2026-05-09 10:35 41.47242 12.26638 13856 ft 401 kts 141°
2026-05-09 10:35 41.45100 12.29033 14643 ft 407 kts 142°
2026-05-09 10:36 41.42901 12.31440 15482 ft 412 kts 142°
2026-05-09 10:36 41.40647 12.33872 16306 ft 418 kts 143°
2026-05-09 10:36 41.38380 12.36294 17091 ft 423 kts 143°
2026-05-09 10:36 41.36071 12.38748 17859 ft 429 kts 143°
2026-05-09 10:37 41.33736 12.41226 18597 ft 434 kts 143°
2026-05-09 10:37 41.31373 12.43730 19329 ft 440 kts 143°
2026-05-09 10:37 41.28977 12.46269 20057 ft 445 kts 144°
2026-05-09 10:37 41.26536 12.48842 20544 ft 453 kts 145°
2026-05-09 10:38 41.24001 12.51361 20574 ft 451 kts 148°
2026-05-09 10:38 41.21344 12.53521 20586 ft 444 kts 155°
2026-05-09 10:38 41.18576 12.55251 20587 ft 443 kts 161°
2026-05-09 10:38 41.15733 12.56741 20580 ft 441 kts 163°
2026-05-09 10:39 41.12822 12.58129 20599 ft 443 kts 164°
2026-05-09 10:39 41.09898 12.59465 21193 ft 449 kts 165°
2026-05-09 10:39 41.06976 12.60796 22097 ft 447 kts 166°
2026-05-09 10:39 41.04032 12.62140 22731 ft 452 kts 166°
2026-05-09 10:40 41.01057 12.63508 23367 ft 457 kts 166°
2026-05-09 10:40 40.98048 12.64901 23989 ft 461 kts 166°
2026-05-09 10:40 40.94981 12.66331 24600 ft 465 kts 166°
2026-05-09 10:40 40.91946 12.67756 25264 ft 467 kts 166°
2026-05-09 10:41 40.88892 12.69193 25838 ft 471 kts 166°
2026-05-09 10:41 40.85785 12.70658 26373 ft 475 kts 166°
2026-05-09 10:41 40.82671 12.72127 26903 ft 479 kts 166°
2026-05-09 10:41 40.79507 12.73622 27455 ft 482 kts 166°
2026-05-09 10:42 40.76370 12.75103 27960 ft 486 kts 166°
2026-05-09 10:42 40.73168 12.76615 28455 ft 489 kts 166°
2026-05-09 10:42 40.69965 12.78125 28973 ft 492 kts 166°
2026-05-09 10:42 40.66747 12.79643 29622 ft 490 kts 166°
2026-05-09 10:43 40.63582 12.81141 30518 ft 483 kts 166°
2026-05-09 10:43 40.60410 12.82642 31274 ft 478 kts 167°
2026-05-09 10:43 40.57315 12.84102 31797 ft 477 kts 167°
2026-05-09 10:43 40.54188 12.85571 32294 ft 476 kts 167°
2026-05-09 10:44 40.51078 12.87028 32780 ft 476 kts 167°
2026-05-09 10:44 40.47971 12.88482 33283 ft 474 kts 167°
2026-05-09 10:44 40.44897 12.89921 33849 ft 471 kts 167°
2026-05-09 10:44 40.41828 12.91356 34359 ft 468 kts 168°
2026-05-09 10:45 40.38736 12.92799 34771 ft 469 kts 168°
2026-05-09 10:46 40.26422 12.98522 35091 ft 470 kts 167°
2026-05-09 10:46 40.20286 13.01372 35090 ft 469 kts 168°
2026-05-09 10:47 40.14064 13.04015 35090 ft 466 kts 170°
2026-05-09 10:47 40.07880 13.06416 35091 ft 466 kts 171°
2026-05-09 10:48 40.01677 13.08798 35090 ft 466 kts 171°
2026-05-09 10:48 39.95429 13.11216 35090 ft 468 kts 171°
2026-05-09 10:49 39.89220 13.13636 35084 ft 468 kts 170°
2026-05-09 10:49 39.82984 13.16077 35082 ft 469 kts 170°
2026-05-09 10:50 39.76772 13.18509 35079 ft 467 kts 170°
2026-05-09 10:50 39.70549 13.20945 35081 ft 468 kts 170°
2026-05-09 10:51 39.64315 13.23377 35079 ft 468 kts 170°
2026-05-09 10:51 39.58078 13.25808 35077 ft 466 kts 170°
2026-05-09 10:52 39.51889 13.28214 35076 ft 468 kts 170°
2026-05-09 10:52 39.45641 13.30641 35075 ft 469 kts 170°
2026-05-09 10:53 39.39420 13.33048 35075 ft 470 kts 170°
2026-05-09 10:53 39.33152 13.35475 35071 ft 468 kts 170°
2026-05-09 10:54 39.26944 13.37872 35072 ft 470 kts 170°
2026-05-09 10:54 39.20702 13.40277 35068 ft 469 kts 170°
2026-05-09 10:55 39.14446 13.42682 35070 ft 468 kts 170°
2026-05-09 10:55 39.08186 13.45086 35066 ft 468 kts 170°
2026-05-09 10:56 39.01990 13.47463 34527 ft 463 kts 170°
2026-05-09 10:56 38.98891 13.48651 33019 ft 468 kts 170°
2026-05-09 10:56 38.95765 13.49840 31478 ft 473 kts 169°
2026-05-09 10:56 38.92653 13.51022 29946 ft 476 kts 169°
2026-05-09 10:57 38.89471 13.52238 28386 ft 478 kts 168°
2026-05-09 10:57 38.86343 13.53631 26837 ft 481 kts 163°
2026-05-09 10:57 38.83324 13.55336 25296 ft 484 kts 158°
2026-05-09 10:57 38.80362 13.57315 23830 ft 482 kts 155°
2026-05-09 10:58 38.77462 13.59436 22406 ft 478 kts 153°
2026-05-09 10:58 38.74653 13.61596 21209 ft 468 kts 152°
2026-05-09 10:58 38.71915 13.63744 19977 ft 460 kts 151°
2026-05-09 10:58 38.69241 13.65852 18780 ft 451 kts 152°
2026-05-09 10:59 38.66591 13.67935 17544 ft 443 kts 151°
2026-05-09 10:59 38.64008 13.69959 16284 ft 435 kts 151°
2026-05-09 10:59 38.61454 13.71945 15003 ft 429 kts 151°
2026-05-09 10:59 38.58968 13.73894 13777 ft 422 kts 148°
2026-05-09 11:00 38.56792 13.76334 12482 ft 420 kts 131°
2026-05-09 11:00 38.55290 13.79455 11263 ft 414 kts 112°
2026-05-09 11:00 38.54606 13.82947 10047 ft 405 kts 94°
2026-05-09 11:00 38.54691 13.86453 8815 ft 396 kts 78°
2026-05-09 11:01 38.55457 13.89767 7671 ft 384 kts 66°
2026-05-09 11:01 38.56530 13.92803 6480 ft 376 kts 60°
2026-05-09 11:01 38.58008 13.95410 5374 ft 363 kts 41°
2026-05-09 11:01 38.60038 13.97177 4360 ft 350 kts 26°
2026-05-09 11:02 38.62331 13.98016 3771 ft 331 kts
2026-05-09 11:02 38.64610 13.97995 3809 ft 334 kts 355°
2026-05-09 11:02 38.66861 13.97406 3763 ft 322 kts 340°
2026-05-09 11:02 38.68720 13.96014 3780 ft 302 kts 321°
2026-05-09 11:03 38.70118 13.94140 3785 ft 284 kts 308°
2026-05-09 11:03 38.71194 13.92088 3783 ft 267 kts 299°
2026-05-09 11:03 38.71861 13.89963 3780 ft 252 kts 283°
2026-05-09 11:03 38.72072 13.87775 3787 ft 247 kts 271°
2026-05-09 11:04 38.71990 13.85501 3783 ft 266 kts 263°
2026-05-09 11:04 38.71603 13.83169 3784 ft 270 kts 254°
2026-05-09 11:04 38.71020 13.80870 3779 ft 270 kts 251°
2026-05-09 11:04 38.70403 13.78622 3781 ft 270 kts 251°
2026-05-09 11:05 38.69791 13.76340 3778 ft 270 kts 252°
2026-05-09 11:05 38.69207 13.74070 3779 ft 270 kts 252°
2026-05-09 11:05 38.68628 13.71780 3782 ft 269 kts 252°
2026-05-09 11:05 38.67994 13.69548 3780 ft 270 kts 248°
2026-05-09 11:06 38.67209 13.67371 3782 ft 270 kts 244°
2026-05-09 11:06 38.66371 13.65215 3777 ft 271 kts 244°
2026-05-09 11:06 38.65534 13.63051 3773 ft 268 kts 244°
2026-05-09 11:06 38.64725 13.60917 3774 ft 270 kts 244°
2026-05-09 11:07 38.63923 13.58770 3774 ft 269 kts 245°
2026-05-09 11:07 38.63119 13.56602 3776 ft 271 kts 245°
2026-05-09 11:07 38.62311 13.54424 3769 ft 270 kts 245°
2026-05-09 11:07 38.61505 13.52253 3776 ft 270 kts 245°
2026-05-09 11:08 38.60695 13.50076 3776 ft 270 kts 245°
2026-05-09 11:08 38.59896 13.47928 3776 ft 270 kts 245°
2026-05-09 11:08 38.59094 13.45771 3773 ft 270 kts 245°
2026-05-09 11:08 38.58288 13.43608 3769 ft 269 kts 245°
2026-05-09 11:09 38.57473 13.41423 3772 ft 269 kts 245°
2026-05-09 11:09 38.56673 13.39285 3773 ft 270 kts 245°
2026-05-09 11:09 38.55869 13.37131 3771 ft 270 kts 245°
2026-05-09 11:09 38.55057 13.34959 3772 ft 270 kts 244°
2026-05-09 11:10 38.54245 13.32785 3770 ft 270 kts 244°
2026-05-09 11:10 38.53437 13.30628 3771 ft 270 kts 244°
2026-05-09 11:10 38.52634 13.28485 3763 ft 268 kts 244°
2026-05-09 11:10 38.51823 13.26324 3766 ft 269 kts 244°
2026-05-09 11:11 38.51018 13.24181 3765 ft 268 kts 244°
2026-05-09 11:11 38.50217 13.22052 3765 ft 268 kts 244°
2026-05-09 11:11 38.49408 13.19898 3766 ft 270 kts 244°
2026-05-09 11:11 38.48602 13.17753 3762 ft 269 kts 244°
2026-05-09 11:12 38.47792 13.15600 3757 ft 268 kts 244°
2026-05-09 11:12 38.46979 13.13442 3766 ft 269 kts 244°
2026-05-09 11:12 38.46171 13.11298 3765 ft 269 kts 244°
2026-05-09 11:12 38.45365 13.09159 3760 ft 269 kts 244°
2026-05-09 11:13 38.44552 13.07001 3764 ft 269 kts 244°
2026-05-09 11:13 38.43742 13.04853 3760 ft 268 kts 244°
2026-05-09 11:13 38.42941 13.02736 3760 ft 266 kts 244°
2026-05-09 11:13 38.42128 13.00593 3761 ft 269 kts 244°
2026-05-09 11:14 38.41314 12.98442 3759 ft 269 kts 244°
2026-05-09 11:14 38.40437 12.96360 3760 ft 269 kts 236°
2026-05-09 11:14 38.39190 12.94610 3759 ft 269 kts 218°
2026-05-09 11:14 38.37642 12.93240 3758 ft 269 kts 212°
2026-05-09 11:15 38.36021 12.92098 3681 ft 265 kts 199°
2026-05-09 11:15 38.34238 12.91710 3519 ft 254 kts 181°
2026-05-09 11:15 38.32480 12.91682 3223 ft 251 kts 179°
2026-05-09 11:15 38.30744 12.91632 2891 ft 251 kts 182°
2026-05-09 11:16 38.29001 12.91488 2561 ft 249 kts 184°
2026-05-09 11:16 38.27311 12.91294 2398 ft 233 kts 184°
2026-05-09 11:16 38.25732 12.91100 2290 ft 222 kts 184°
2026-05-09 11:16 38.24208 12.90916 2299 ft 221 kts 184°
2026-05-09 11:17 38.22669 12.90734 2301 ft 221 kts 184°
2026-05-09 11:17 38.21136 12.90555 2303 ft 220 kts 184°
2026-05-09 11:17 38.19617 12.90378 2303 ft 220 kts 184°
2026-05-09 11:17 38.18089 12.90199 2304 ft 220 kts 184°
2026-05-09 11:18 38.16560 12.90020 2305 ft 220 kts 184°
2026-05-09 11:18 38.15020 12.89959 2304 ft 219 kts 174°
2026-05-09 11:18 38.13635 12.90610 2300 ft 206 kts 139°
2026-05-09 11:18 38.12882 12.91999 2302 ft 180 kts 108°
2026-05-09 11:19 38.12638 12.93441 2317 ft 163 kts 95°
2026-05-09 11:19 38.12727 12.94848 2294 ft 155 kts 71°
2026-05-09 11:19 38.13180 12.96073 2345 ft 148 kts 63°
2026-05-09 11:19 38.13628 12.97234 2185 ft 149 kts 66°
2026-05-09 11:20 38.14026 12.98405 1879 ft 142 kts 67°
2026-05-09 11:20 38.14406 12.99539 1593 ft 136 kts 67°
2026-05-09 11:20 38.14770 13.00619 1312 ft 133 kts 66°
2026-05-09 11:20 38.15133 13.01703 1042 ft 131 kts 65°
2026-05-09 11:21 38.15480 13.02778 749 ft 131 kts 67°
2026-05-09 11:21 38.15797 13.03838 492 ft 127 kts 66°
2026-05-09 11:21 38.16133 13.04878 397 ft 126 kts 62°
2026-05-09 11:21 38.16497 13.05891 367 ft 130 kts 64°
2026-05-09 11:22 38.16849 13.06919 179 ft 123 kts 63°
2026-05-09 11:22 38.17193 13.07939 112 ft 125 kts 64°
2026-05-09 11:22 38.17530 13.08950 68 ft 125 kts 64°
2026-05-09 11:22 38.17839 13.09843 71 ft 82 kts 66°
2026-05-09 11:23 38.17980 13.10263 81 ft 26 kts 66°
2026-05-09 11:23 38.18014 13.10330 82 ft 5 kts 297°
2026-05-09 11:23 38.18023 13.10243 80 ft 15 kts 275°
2026-05-09 11:23 38.18033 13.10066 71 ft 22 kts 275°
2026-05-09 11:24 38.18066 13.09878 63 ft 21 kts 297°
2026-05-09 11:24 38.18181 13.09810 57 ft 19 kts 336°
2026-05-09 11:24 38.18241 13.09820 54 ft 7 kts 63°
2026-05-09 11:24 38.18257 13.09865 54 ft 3 kts 67°
2026-05-09 11:25 38.18260 13.09872 55 ft 0 kts 67°
2026-05-09 11:33 38.18259 13.09872 55 ft 0 kts 67°
2026-05-09 11:33 38.18248 13.09845 54 ft 2 kts 62°
2026-05-09 11:34 38.18241 13.09828 54 ft 2 kts 61°
2026-05-09 11:34 38.18234 13.09812 54 ft 2 kts 61°
2026-05-09 11:34 38.18228 13.09797 54 ft 1 kts 60°
2026-05-09 11:34 38.18226 13.09793 54 ft 0 kts 95°
2026-05-09 11:35 38.18229 13.09785 53 ft 0 kts 152°
2026-05-09 11:35 38.18234 13.09783 53 ft 1 kts 158°
2026-05-09 11:35 38.18236 13.09782 53 ft 0 kts 157°
2026-05-09 11:38 38.18220 13.09791 54 ft 6 kts 156°
2026-05-09 11:38 38.18154 13.09830 59 ft 15 kts 154°
2026-05-09 11:39 38.18053 13.09855 63 ft 13 kts 215°
2026-05-09 11:39 38.17990 13.09731 62 ft 21 kts 245°
2026-05-09 11:39 38.17919 13.09507 56 ft 32 kts 248°
2026-05-09 11:40 38.17753 13.09000 47 ft 27 kts 243°
2026-05-09 11:40 38.17674 13.08901 47 ft 12 kts 219°
2026-05-09 11:40 38.17588 13.08812 47 ft 20 kts 219°
2026-05-09 11:40 38.17496 13.08786 49 ft 12 kts 115°
2026-05-09 11:41 38.17498 13.08851 50 ft 0 kts 67°
2026-05-09 11:41 38.17512 13.08892 51 ft 30 kts 66°
2026-05-09 11:41 38.17722 13.09514 61 ft 118 kts 67°
2026-05-09 11:42 38.18126 13.10708 282 ft 170 kts 65°
2026-05-09 11:42 38.18624 13.12003 1340 ft 158 kts 58°
2026-05-09 11:42 38.19155 13.13022 2231 ft 146 kts 56°
2026-05-09 11:42 38.19792 13.14241 2376 ft 180 kts 58°
2026-05-09 11:43 38.20330 13.15618 3148 ft 172 kts 70°
2026-05-09 11:43 38.20720 13.17080 3668 ft 179 kts 77°
2026-05-09 11:43 38.20981 13.18801 3480 ft 217 kts 81°
2026-05-09 11:43 38.21498 13.20654 3061 ft 233 kts 56°
2026-05-09 11:44 38.22587 13.22259 2668 ft 244 kts 46°
2026-05-09 11:44 38.23774 13.23801 2331 ft 240 kts 47°
2026-05-09 11:44 38.24898 13.25381 2306 ft 242 kts 49°
2026-05-09 11:44 38.25988 13.27012 2306 ft 249 kts 50°
2026-05-09 11:45 38.27107 13.28722 2299 ft 248 kts 51°
2026-05-09 11:45 38.28230 13.30471 2480 ft 269 kts 54°
2026-05-09 11:45 38.29118 13.32485 3655 ft 266 kts 72°
2026-05-09 11:45 38.29252 13.34769 4724 ft 263 kts 101°
2026-05-09 11:46 38.28491 13.36837 5003 ft 258 kts 131°
2026-05-09 11:46 38.27213 13.38356 5012 ft 248 kts 143°
2026-05-09 11:46 38.25798 13.39589 5007 ft 244 kts 156°
2026-05-09 11:46 38.24172 13.40200 5013 ft 242 kts 176°
2026-05-09 11:47 38.22534 13.40065 5006 ft 231 kts 201°
2026-05-09 11:47 38.21201 13.39040 5023 ft 224 kts 225°
2026-05-09 11:47 38.20087 13.37658 5014 ft 226 kts 226°
2026-05-09 11:47 38.18956 13.36272 5013 ft 224 kts 225°
2026-05-09 11:48 38.17815 13.34909 5019 ft 229 kts 224°
2026-05-09 11:48 38.16570 13.33424 5393 ft 257 kts 225°
2026-05-09 11:48 38.15234 13.31831 6169 ft 272 kts 225°
2026-05-09 11:48 38.13859 13.30198 7252 ft 272 kts 226°
2026-05-09 11:49 38.12484 13.28565 8291 ft 275 kts 226°
2026-05-09 11:49 38.11103 13.26921 9284 ft 277 kts 227°
2026-05-09 11:49 38.09708 13.25259 10260 ft 280 kts 227°
2026-05-09 11:49 38.08287 13.23571 11169 ft 284 kts 226°
2026-05-09 11:50 38.06708 13.22045 12063 ft 293 kts 214°
2026-05-09 11:50 38.04743 13.21275 12891 ft 309 kts 187°
2026-05-09 11:50 38.02595 13.21824 13754 ft 324 kts 157°
2026-05-09 11:50 38.00750 13.23545 13899 ft 345 kts 133°
2026-05-09 11:51 37.99536 13.26187 13600 ft 345 kts 110°
2026-05-09 11:51 37.98932 13.29080 13327 ft 338 kts 102°
2026-05-09 11:51 37.98441 13.31955 13046 ft 332 kts 103°
2026-05-09 11:51 37.97846 13.34765 12760 ft 326 kts 107°
2026-05-09 11:52 37.97128 13.37462 12614 ft 318 kts 111°
2026-05-09 11:52 37.96353 13.40017 12630 ft 302 kts 112°
2026-05-09 11:52 37.95586 13.42411 12637 ft 288 kts 113°
2026-05-09 11:52 37.94817 13.44769 12651 ft 304 kts 113°
2026-05-09 11:53 37.93968 13.47375 12892 ft 331 kts 113°
2026-05-09 11:53 37.93074 13.50146 13443 ft 346 kts 113°
2026-05-09 11:53 37.92159 13.52998 14049 ft 359 kts 112°
2026-05-09 11:53 37.91216 13.55944 14775 ft 366 kts 112°
2026-05-09 11:54 37.90260 13.58935 15061 ft 371 kts 112°
2026-05-09 11:54 37.89284 13.61984 15082 ft 368 kts 112°
2026-05-09 11:54 37.88333 13.64954 15085 ft 367 kts 112°
2026-05-09 11:54 37.87375 13.67951 15088 ft 366 kts 113°
2026-05-09 11:55 37.86423 13.70970 15092 ft 367 kts 112°
2026-05-09 11:56 37.81737 13.85952 15100 ft 358 kts 112°
2026-05-09 11:56 37.80821 13.88871 15116 ft 358 kts 112°
2026-05-09 11:56 37.79876 13.91867 15114 ft 384 kts 112°
2026-05-09 11:57 37.78863 13.95075 15115 ft 393 kts 112°
2026-05-09 11:57 37.77855 13.98267 15117 ft 393 kts 112°
2026-05-09 11:57 37.76832 14.01496 15117 ft 393 kts 112°
2026-05-09 11:57 37.75804 14.04696 15118 ft 393 kts 113°
2026-05-09 11:58 37.74759 14.07915 15135 ft 400 kts 113°
2026-05-09 11:58 37.73672 14.11239 15140 ft 428 kts 113°
2026-05-09 11:58 37.72508 14.14795 15140 ft 441 kts 113°
2026-05-09 11:58 37.71326 14.18409 15146 ft 441 kts 112°
2026-05-09 11:59 37.70154 14.21997 15151 ft 442 kts 113°
2026-05-09 11:59 37.68989 14.25562 15155 ft 442 kts 113°
2026-05-09 11:59 37.67819 14.29139 15151 ft 442 kts 113°
2026-05-09 11:59 37.66643 14.32733 15133 ft 441 kts 112°
2026-05-09 12:00 37.65478 14.36287 15132 ft 442 kts 113°
2026-05-09 12:00 37.64261 14.39889 15119 ft 441 kts 115°
2026-05-09 12:00 37.62763 14.43257 15107 ft 440 kts 126°
2026-05-09 12:00 37.60667 14.46003 15109 ft 436 kts 146°
2026-05-09 12:01 37.57982 14.47682 15112 ft 429 kts 167°
2026-05-09 12:01 37.55046 14.48235 15110 ft 422 kts 181°
2026-05-09 12:01 37.52106 14.48261 15088 ft 420 kts 185°
2026-05-09 12:01 37.49208 14.48107 15093 ft 418 kts 187°
2026-05-09 12:02 37.46283 14.47893 14590 ft 413 kts 187°
2026-05-09 12:02 37.43496 14.47688 13990 ft 394 kts 187°
2026-05-09 12:02 37.40818 14.47505 13342 ft 377 kts 187°
2026-05-09 12:02 37.38272 14.47347 12775 ft 362 kts 187°
2026-05-09 12:03 37.35796 14.47207 12219 ft 347 kts 187°
2026-05-09 12:03 37.33417 14.47084 11753 ft 333 kts 187°
2026-05-09 12:03 37.31156 14.46974 11365 ft 318 kts 187°
2026-05-09 12:03 37.28973 14.46870 11398 ft 312 kts 187°
2026-05-09 12:04 37.26804 14.46763 11366 ft 304 kts 187°
2026-05-09 12:04 37.24722 14.46666 11188 ft 296 kts 187°
2026-05-09 12:04 37.22686 14.46570 10858 ft 293 kts 187°
2026-05-09 12:04 37.20653 14.46473 10479 ft 293 kts 187°
2026-05-09 12:05 37.18607 14.46376 10112 ft 292 kts 187°
2026-05-09 12:05 37.16627 14.46287 9905 ft 278 kts 187°
2026-05-09 12:05 37.14764 14.46213 9714 ft 258 kts 188°
2026-05-09 12:05 37.13002 14.46138 9401 ft 245 kts 188°
2026-05-09 12:06 37.11338 14.46061 9184 ft 231 kts 189°
2026-05-09 12:06 37.09781 14.45988 8973 ft 219 kts 189°
2026-05-09 12:06 37.08296 14.45918 8776 ft 207 kts 189°
2026-05-09 12:06 37.06871 14.45850 8527 ft 200 kts 189°
2026-05-09 12:07 37.05492 14.45780 8191 ft 198 kts 189°
2026-05-09 12:07 37.04121 14.45713 7842 ft 197 kts 188°
2026-05-09 12:07 37.02767 14.45651 7540 ft 194 kts 187°
2026-05-09 12:07 37.01425 14.45590 7213 ft 193 kts 188°
2026-05-09 12:08 37.00082 14.45529 6895 ft 191 kts 187°
2026-05-09 12:08 36.98760 14.45468 6573 ft 189 kts 187°
2026-05-09 12:08 36.97478 14.45412 6240 ft 178 kts 187°
2026-05-09 12:08 36.96280 14.45359 5818 ft 174 kts 186°
2026-05-09 12:09 36.95067 14.45301 5339 ft 174 kts 186°
2026-05-09 12:09 36.93861 14.45233 4857 ft 174 kts 186°
2026-05-09 12:09 36.92669 14.45407 4377 ft 174 kts 154°
2026-05-09 12:10 36.91707 14.49138 3102 ft 154 kts 57°
2026-05-09 12:10 36.92358 14.50123 2942 ft 147 kts 47°
2026-05-09 12:10 36.93047 14.51111 2724 ft 154 kts 49°
2026-05-09 12:11 36.93743 14.52107 2330 ft 149 kts 49°
2026-05-09 12:11 36.94418 14.53075 2035 ft 147 kts 50°
2026-05-09 12:11 36.95050 14.54054 1887 ft 147 kts 54°
2026-05-09 12:11 36.95708 14.55050 1633 ft 146 kts 50°
2026-05-09 12:12 36.96361 14.56002 1488 ft 146 kts 52°
2026-05-09 12:12 36.97012 14.57023 1162 ft 146 kts 50°
2026-05-09 12:12 36.97662 14.57987 904 ft 148 kts 50°
2026-05-09 12:12 36.98318 14.58969 764 ft 148 kts 50°
2026-05-09 12:13 36.98982 14.59971 708 ft 147 kts 50°
2026-05-09 12:13 36.99551 14.60825 738 ft 90 kts 50°
2026-05-09 12:13 36.99786 14.61184 750 ft 23 kts 51°
2026-05-09 12:13 36.99876 14.61313 756 ft 16 kts 47°
2026-05-09 12:14 36.99968 14.61400 763 ft 18 kts 31°
2026-05-09 12:14 37.00090 14.61464 769 ft 12 kts
2026-05-09 12:14 37.00135 14.61406 769 ft 12 kts 260°
2026-05-09 12:14 37.00044 14.61258 761 ft 27 kts 230°
2026-05-09 12:15 36.99906 14.61052 751 ft 33 kts 230°
2026-05-09 12:15 36.99785 14.60869 744 ft 13 kts 229°
2026-05-09 12:15 36.99737 14.60793 742 ft 6 kts 255°
2026-05-09 12:15 36.99754 14.60755 742 ft 3 kts 319°
2026-05-09 12:16 36.99768 14.60748 742 ft 0 kts 344°
2026-05-09 12:16 36.99772 14.60747 742 ft 0 kts 345°